Regional Weather Roundup
Issued by NWS Portland, ME

Home | Current Version | Previous Version | Text Only | Print | Product List | Glossary On
Versions: 1 2 3 4 5 6 7 8 9 10 11 12 13 14 15 16 17 18 19 20 21 22 23 24 25 26 27 28 29 30 31 32 33 34 35 36 37 38 39 40 41 42 43 44 45 46 47 48 49 50
000
ASUS41 KGYX 052110
RWRGYX
WEATHER ROUNDUP FOR MAINE AND NEW HAMPSHIRE
NATIONAL WEATHER SERVICE GRAY ME
400 PM EST MON DEC 05 2016

MEZ002-005-006-010-012-015-018-020-021-024-026-027-029-052200-
MAINE

CITY           SKY/WX    TMP DP  RH WIND       PRES   REMARKS
PORTLAND       LGT SNOW  29  27  92 NW5       29.93R FOG
SANFORD        CLOUDY    30  28  92 CALM      29.91F
BAR HARBOR     LGT SNOW  29  27  92 NE6       29.96S VSB 1
WISCASSET      LGT SNOW  33  31  92 CALM      29.93S FOG
ROCKLAND       LGT RAIN  37  34  89 SE10      29.92S
FRYEBURG       CLOUDY    27  24  89 CALM      29.91S
LEWISTONAUBURN LGT SNOW  27  25  93 N6        29.92S FOG
AUGUSTA        LGT SNOW  26  24  92 N8        29.92S VSB 3/4
WATERVILLE     LGT SNOW  26  23  88 N6        29.90S VSB 1
BANGOR         LGT SNOW  26  25  96 E3        29.95S FOG
GREENVILLE       N/A     20  20 100 CALM      29.84S
MILLINOCKET    LGT SNOW  24  18  77 CALM      29.95S
HOULTON        CLOUDY    20  16  84 CALM      29.93S
PRESQUE ISLE   CLOUDY    15  13  91 W3        29.95R
FRENCHVILLE    CLOUDY    17  13  84 E3        29.89R
CARIBOU        CLOUDY    15  12  88 CALM      29.92R
$$

NHZ002-005-008-009-011-012-014-052200-
NEW HAMPSHIRE

CITY           SKY/WX    TMP DP  RH WIND       PRES   REMARKS
PORTSMOUTH     CLOUDY    32  30  93 NW2       29.91S FOG
ROCHESTER      CLOUDY    31  28  89 CALM      29.90F
NASHUA         MOCLDY    32  29  88 CALM      29.92F
MANCHESTER     MOCLDY    32  28  85 S3        29.90F
CONCORD        CLOUDY    32  28  85 NW3       29.91S
LACONIA        FLURRIES  30  28  92 CALM      29.90F
PLYMOUTH       LGT SNOW  28  27  95 CALM      29.91S
BERLIN         LGT SNOW  27  23  85 NW3       29.84S VSB 3/4
WHITEFIELD     FLURRIES  29  25  85 CALM      29.85S
JAFFREY        CLOUDY    34  31  88 S6        29.89S
KEENE          CLOUDY    33  29  85 CALM      29.92S
LEBANON        CLOUDY    32  29  88 CALM      29.89S
MT WASHINGTON  SNOW      14  14 100 W44         N/A  VSB 0   WCI -10
$$

VTZ005-007-008-052200-
VERMONT

CITY           SKY/WX    TMP DP  RH WIND       PRES   REMARKS
ST JOHNSBURY     N/A     31  28  89 MISG      29.85R
MONTPELIER     CLOUDY    29  27  92 CALM      29.88R
BURLINGTON     FLURRIES  35  30  82 SW9       29.89R
$$

MAZ007-012-024-CTZ003-RIZ002-NYZ038-NYZ072-052200-
SOUTHERN NEW ENGLAND AND NY

CITY           SKY/WX    TMP DP  RH WIND       PRES   REMARKS
BOSTON         PTCLDY    38  34  85 W9G21     29.93F
WORCESTER      CLEAR     34  30  85 W13       29.89S
NANTUCKET      CLOUDY    46  43  89 NW12      29.91R
PROVIDENCE     PTCLDY    41  34  76 NW7       29.94R
HARTFORD       MOCLDY    41  33  73 CALM      29.97R
ALBANY         MOCLDY    41  30  65 W8        29.95R
NEW YORK CITY  PTCLDY    50  33  52 NW14      29.99R
$$

ANZ081-ANZ082-ANZ150-NHZ014-MEZ023>029-052200-
COASTAL MARINE OBSERVATIONS

STATION/POSITION TIME  TEMP    WIND        PRES    WAVE
                       AIR SEA DIR/SP/G            HT/PER
                 (UTC) (F)     (DEG/KT/KT) (MB)    (FT/S)
MOUNT DESERT ROC 2100   36                 1014.1R
MATINICUS ROCK   2000   38     150/ 17/ 20 1012.4F
ISLE OF SHOALS   2000   38     260/ 12/ 14 1012.9R
JEFFREYS LEDGE   2008      51                N/A     4/ 4
CASHES LEDGE BUO 2050   41 50  170/ 16/ 19 1012.7R   3/ 3
GEORGES BANK BUO 2050   44 51              1014.9F   6/11
$$

.............KEY..............
   WCI - WIND CHILL
   TC  - TEMPERATURE IN CELSIUS
   VSB - VISIBILITY IN MILES
   HX  - HEAT INDEX
   FAIR- INDICATES FEW OR NO CLOUDS BELOW 12,000 FT, WITH NO
         SIGNIFICANT WEATHER AND/OR OBSTRUCTIONS TO VISIBILITY.






USA.gov is the U.S. government's official web portal to all federal, state and local government web resources and services.